Weather History for Nellis AFB, NV

Change the Weather History Date:

Tuesday, February 12, 2013

  Actual Average Record
Temperature  
Mean Temperature 45 °F -  
Max Temperature 54 °F 60 °F 71 °F (2002)
Min Temperature 36 °F 39 °F 28 °F (1999)
Degree Days  
Heating Degree Days 20    
Moisture  
Dew Point 12 °F    
Average Humidity 28    
Maximum Humidity 36    
Minimum Humidity 19    
Precipitation  
Precipitation 0.00 in - - ()
Sea Level Pressure  
Sea Level Pressure 30.30 in    
Wind  
Wind Speed 7 mph (NE)    
Max Wind Speed 13 mph    
Max Gust Speed -    
Visibility 10 miles    
Events      
Averages and records for this station are not official NWS values.
T = Trace of Precipitation, MM = Missing Value Source: NWS Daily Summary

Daily Weather History Graph

Daily Weather History Graph

Search for Another Location

Airport:

Trip Planner

Search our weather history database for the weather conditions in past years. The results will help you decide how hot, cold, wet, or windy it might be!

Date:

Astronomy

Feb. 12, 2013 Rise Set
Actual Time 6:30 AM PST 5:18 PM PST
Civil Twilight 6:04 AM PST 5:45 PM PST
Nautical Twilight 5:33 AM PST 6:15 PM PST
Astronomical Twilight 5:04 AM PST 6:45 PM PST
Moon 7:36 AM PST (2/12) 8:16 PM PST (2/12)
Length of Visible Light 11h 40m
Length of Day
10h 47m
Waxing Crescent, 8% of the Moon is Illuminated
Feb 12
Waxing Crescent
Feb 17
First Quarter
Feb 25
Full
Mar 4
Last Quarter
Mar 11
New

Hourly Weather History & Observations

Time (PST) Temp. Windchill Dew Point Humidity Pressure Visibility Wind Dir Wind Speed Gust Speed Precip Events Conditions
12:58 AM 41.5 °F 34.6 °F 9.5 °F 27% 30.26 in 10.0 mi ENE 12.7 mph - N/A   Clear
1:58 AM 37.9 °F 31.5 °F 8.4 °F 30% 30.27 in 10.0 mi ENE 9.2 mph - N/A   Clear
2:58 AM 38.1 °F 31.7 °F 9.5 °F 31% 30.28 in 10.0 mi NE 9.2 mph - N/A   Clear
3:58 AM 36.5 °F 29.2 °F 10.8 °F 35% 30.29 in 10.0 mi NE 10.4 mph - N/A   Clear
4:58 AM 37.6 °F 30.5 °F 11.5 °F 34% 30.32 in 10.0 mi ENE 10.4 mph - N/A   Clear
5:58 AM 39.4 °F 33.2 °F 11.8 °F 32% 30.33 in 10.0 mi NNE 9.2 mph - N/A   Clear
6:58 AM 36.1 °F 33.5 °F 11.1 °F 36% 30.36 in 10.0 mi NW 3.5 mph - N/A   Clear
7:58 AM 37.6 °F 34.0 °F 11.7 °F 34% 30.38 in 10.0 mi SSW 4.6 mph - N/A   Clear
8:58 AM 43.0 °F - 12.0 °F 28% 30.39 in 10.0 mi NNE 2.3 mph - N/A   Clear
9:58 AM 46.8 °F - 12.0 °F 25% 30.38 in 10.0 mi Variable 6.9 mph - N/A   Clear
10:58 AM 48.2 °F - 12.2 °F 24% 30.36 in 10.0 mi Variable 4.6 mph - N/A   Clear
11:58 AM 49.6 °F - 11.5 °F 22% 30.33 in 10.0 mi Calm Calm - N/A   Clear
12:58 PM 52.2 °F - 11.8 °F 20% 30.30 in 10.0 mi Variable 3.5 mph - N/A   Clear
1:58 PM 52.9 °F - 11.8 °F 19% 30.28 in 10.0 mi SW 3.5 mph - N/A   Clear
2:58 PM 53.8 °F - 12.7 °F 20% 30.27 in 10.0 mi South 3.5 mph - N/A   Clear
3:58 PM 54.1 °F - 12.9 °F 19% 30.26 in 10.0 mi ENE 4.6 mph - N/A   Clear
4:58 PM 53.6 °F - 12.6 °F 20% 30.26 in 10.0 mi East 4.6 mph - N/A   Clear
5:58 PM 51.3 °F - 12.9 °F 22% 30.26 in 10.0 mi Calm Calm - N/A   Clear
6:58 PM 47.1 °F - 14.0 °F 26% 30.28 in 10.0 mi North 5.8 mph - N/A   Clear
7:58 PM 44.6 °F 41.4 °F 14.4 °F 30% 30.28 in 10.0 mi NNE 5.8 mph - N/A   Clear
8:58 PM 40.6 °F 35.4 °F 13.8 °F 34% 30.29 in 10.0 mi NNE 8.1 mph - N/A   Clear
9:58 PM 40.6 °F 35.4 °F 13.6 °F 33% 30.29 in 10.0 mi ENE 8.1 mph - N/A   Clear
10:58 PM 41.0 °F - 14.2 °F 34% 30.29 in 10.0 mi Variable 2.3 mph - N/A   Clear
11:58 PM 43.9 °F 41.3 °F 18.1 °F 36% 30.28 in 10.0 mi NW 4.6 mph - N/A   Clear